COSMOS 249 DEB, 3757

Orbit data source: Space-Track

COSMOS 249 DEB, 3757 is space debris in LEO originally from a launch on Sun, 20 Oct 1968 UTC launched from the Tyuratam Missile And Space Complex (TTMTR). Debris objects in space refer to the collection of defunct objects orbiting the Earth. Examples of debris include non-operational satellites, rocket bodies, and fragments generated from explosions, collisions, or faulty payload assembly.

Loading next visibility...
Identifier
3757, 1968-091AU
Orbit
LEO
Country
Flag of CISCIS
Related business
Manufacturer
Unknown
Mission
Spacecraft
Bus & Motor
Unknown
Mass
Unknown
Launch date (UTC)
1968-10-20 (58 years ago)
Launch vehicle
Unknown
Launch site
Tyuratam Missile And Space Complex (TTMTR)
Object type
Payload
Rocket body
Debris
Shape & HBR
Unknown shape, 0.1 m
Radar Cross Section
Medium (>0.1 m² and <1 m²)

Expand to show TLE details & history
Last TLE update: 14 hours ago

TLE from 14 hours ago
0 COSMOS 249 DEB
1  3757U 68091AU  26171.45084668  .00008494  00000-0  90398-3 0  9991
2  3757  61.9707 202.5120 0363283 101.5794 262.6282 14.51476133834398
Epoch: 2026-06-20T10:49Z
TLE epoch observation values (Epoch: 2026-06-20T10:49:13.153Z)
Latitude
-0.00008°
Longitude
131.54187°
Altitude
764.801 km
Speed
7.45 km/s
True Right ascension
13h 30m 02s
True Declination
0° 00' 00"
Sunlit
Object was in daylight at epoch
Visualization orbit readout
Latitude
Unknown
Longitude
Unknown
Altitude
Unknown
Speed
Unknown
Apparent Right ascension
Unknown
Apparent Declination
Unknown
Sunlit
N/A
Visualization observer readout
Local Sidereal Time
11:43:29
Azimuth
Unknown
Elevation
Unknown
Doppler factor
Unknown
Orbital elements
Apogee altitude
977.642 km
Perigee altitude
461.931 km
Semi-major axis
7,097.924 km
Eccentricity
0.03633
Inclination
61.9707°
RAAN
202.512°
Arg. of periapsis
101.5794°
True anomaly
258.52712°
Mean anomaly
262.6282°
Eccentric anomaly
260.57484°
Mean motion
3.62949 °/min
Orbital period
99.19 mins
BSTAR
0.00090398
Loading maneuver chart data...
Computing Atmospheric mass density...

Documentation

Showing up to 5 results
|